Weather in Blackpool

United Kingdom     53°48′50″N   3°03′11″W
temp.,
°C
wind,
m/s
gust,
m/s
humid.,
%
clouds,
%
prec.,
mm/h
press.,
hPa
HPBL,
m
14 june, mon
mon1401:00+15ssw22905 0.0 102011
04:00+14wsw71386100 0.0 1019420
07:00+14w71094100 0.1 1020597
10:00+14wnw7977100 0.0 1021681
13:00+14wnw6767100 0.0 1022898
16:00+14wnw4572100 0.0 1022799
19:00+14w4572100 0.0 1022532
22:00+12wnw348580 0.0 1023113
15 june, tue
tue1501:00+11nnw348155 0.0 1023145
04:00+10nnw228520 0.0 1023140
07:00+12wnw0178100 0.0 1023233
10:00+15s2267100 0.0 1022731
13:00+17wsw2458100 0.0 1020932
16:00+18w45585 0.0 1018510
19:00+17wsw236363 0.0 1016262
22:00+14s227399 0.0 101514
16 june, wed
wed1601:00+13s5876100 0.0 1014166
04:00+12sse487587 0.0 1013169
07:00+14sse5876100 0.0 1012222
10:00+17ssw5878100 0.0 1012604
13:00+16wnw458572 0.1 1012413
16:00+16nw447977 0.0 1012491
19:00+14n2385100 0.1 1013228
22:00+13wnw0083100 0.0 101367
17 june, thu
thu1701:00+13nnw228284 0.0 101377
04:00+13nnw2378100 0.0 1013147
07:00+14nnw467876 0.0 1013373
10:00+15nnw3475100 0.1 1014467
13:00+16nnw5572100 0.4 1014658
16:00+15nnw7776100 0.0 1014527
19:00+14nnw7881100 0.1 1015325
22:00+13nnw468639 0.0 1015129
18 june, fri
fri1801:00+14nnw468196 0.0 1016172
04:00+13nne357998 0.0 1016141
07:00+13ne377899 0.0 1017531
10:00+13ene6876100 0.0 1018692
13:00+14ene6771100 0.0 1018833
16:00+13ene5874100 0.0 1018642
19:00+12ene5879100 0.4 1018568
22:00+10ne51093100 2.3 1018475